Погода в Бородулях

Россия / Удмуртская Республика     57°26′18″N   54°09′42″E
темп.,
°C
ветер,
м/с
пор.,
м/с
влажн.,
%
обл.,
%
осадки,
мм/ч
давл.,
гПа
погр.,
м
14 мая, пт
пт1401:00+17ю22565 0.0 102414
04:00+15ю336045 0.0 102529
07:00+19ююз36585 0.0 1024178
10:00+23ююз56436 0.0 1024605
13:00+26ююз563975 0.0 10231444
16:00+26юз673772 0.0 10221597
19:00+22ююз510525 0.0 1021267
22:00+18ююз4116129 0.0 1020177
15 мая, сб
сб1501:00+16ююз4126710 0.0 1020208
04:00+15юз4970100 0.0 1019138
07:00+18зюз476755 0.0 1020217
10:00+23юз4658100 0.0 1020737
13:00+26юз5748100 0.0 10191421
16:00+27юз6941100 0.0 10181437
19:00+23ююз51155100 0.0 1017262
22:00+19юз5146079 0.0 1018269
16 мая, вс
вс1601:00+17юз4126377 0.0 1018210
04:00+15юз4106621 0.0 1018152
07:00+19юз41061100 0.0 1019263
10:00+24юз694351 0.0 1018542
13:00+28ююз710315 0.0 10181936
16:00+28ююз7103444 0.0 10172776
19:00+24ююз51250100 0.0 1016253
22:00+20юз41157100 0.0 1016157
17 мая, пн
пн1701:00+18ююз486494 0.0 1016114
04:00+16зюз3670100 0.0 1016101
07:00+19зюз4768100 0.0 1017241
10:00+24з5855100 0.0 10171061
13:00+26з684284 0.0 10171937
16:00+27з694047 0.0 10162393
19:00+22ссз4758100 0.1 1017201
22:00+17сз227568 0.8 101814
18 мая, вт
вт1801:00+16з1175100 1.1 101811
04:00+15зсз2281100 1.3 101811
07:00+19зюз127055 0.2 1018163
10:00+23з235392 0.2 1018834
13:00+26з3442100 0.0 10181648
16:00+28сз263666 0.0 10172524
19:00+24ссв225152 0.0 101722
22:00+19вюв22615 0.0 101817